Regional Weather Roundup
Issued by NWS Cleveland, OH

Home | Current Version | Previous Version | Text Only | Print | Product List | Glossary Off
Versions: 1 2 3 4 5 6 7 8 9 10 11 12 13 14 15 16 17 18 19 20 21 22 23 24 25 26 27 28 29 30 31 32 33 34 35 36 37 38 39 40 41 42 43 44 45 46 47 48 49 50

000
ASUS41 KCLE 092110
RWRCLE
OHIO REGIONAL WEATHER ROUNDUP
NATIONAL WEATHER SERVICE WILMINGTON, OH
500 PM EDT WED JUL 09 2014

NOTE: "FAIR" INDICATES FEW OR NO CLOUDS BELOW 12,000 FEET WITH NO
SIGNIFICANT WEATHER AND/OR OBSTRUCTIONS TO VISIBILITY.

OHZ001>008-015>018-024>027-034-035-043-044-092200-
   NORTHWEST OHIO

CITY           SKY/WX    TMP DP  RH WIND       PRES   REMARKS
DEFIANCE       PTSUNNY   77  56  48 VRB6      29.93S
FINDLAY        MOSUNNY   79  59  50 W12       29.91F
TOLEDO EXPRESS MOSUNNY   80  55  42 NW13      29.92R
TOLEDO METCALF MOSUNNY   80  55  42 NW9       29.92S
LIMA           PTSUNNY   80  61  52 W13       29.93S
$$

OHZ009>014-019>023-028>033-038-089-092200-
   NORTHEAST OHIO

CITY           SKY/WX    TMP DP  RH WIND       PRES   REMARKS
CLE-HOPKINS    PTSUNNY   74  59  59 N12       29.94S
CLE-LAKEFRONT  CLOUDY    71  63  75 NE8       29.92S
CUY CO. ARPT   NOT AVBL
LORAIN-ELYRIA  MOSUNNY   77  61  57 N14       29.94R
ASHTABULA      MOSUNNY   70  61  73 VRB3      29.95S
AKRON-CANTON   PTSUNNY   78  52  40 W8        29.93S
WOOSTER        CLOUDY    75  58  55 W6        29.94S
MANSFIELD      PTSUNNY   73  61  65 SW6       29.95S
YOUNGSTOWN     MOSUNNY   78  58  49 W12G17    29.93S
$$

OHZ042-051>053-060>062-070>072-077>081-092200-
  SOUTHWEST OHIO

CITY           SKY/WX    TMP DP  RH WIND       PRES   REMARKS
CINC-COVINGTON MOSUNNY   82  58  43 W13       29.96F
CINC-LUNKEN    MOSUNNY   83  58  42 SW9       29.94F
HAMILTON       PTSUNNY   83  59  44 VRB7      29.95F
DAYTON         PTSUNNY   81  60  48 W15       29.96S
WRIGHT-PAT AFB SUNNY     82  59  46 W16       29.95S
DAYTON GENERAL PTSUNNY   81  58  45 W14G20    29.95S
WILMINGTON     SUNNY     82  55  39 W13       29.95S
$$

OHZ036-037-039>041-045>050-054>059-063>069-073>076-082>088-092200-
  CENTRAL AND SOUTHEAST OHIO

CITY           SKY/WX    TMP DP  RH WIND       PRES   REMARKS
COLUMBUS       MOSUNNY   82  53  36 W13       29.92F
OSU AIRPORT    CLOUDY    80  55  42 SW6       29.93S
BOLTON FIELD   MOSUNNY   81  61  50 SW9       29.94F
RICKENBACK AFB SUNNY     84  50  30 SW7G16    29.93S
NEWARK         SUNNY     81  57  43 SW13      29.92F
MARION         MOSUNNY   75  63  66 NW5       29.93F
LANCASTER      SUNNY     81  56  42 W8        29.94F
ZANESVILLE     SUNNY     81  55  40 VRB5      29.92F
NEW PHILLY     SUNNY     80  57  45 VRB7      29.92F
$$



USA.gov is the U.S. government's official web portal to all federal, state and local government web resources and services.